Regional Weather Roundup
Issued by NWS

Home | Current Version | Previous Version | Graphics & Text | Print | Product List | Glossary On
Versions: 1 2 3 4 5 6 7 8 9 10 11 12 13 14 15 16 17 18 19 20 21 22 23 24 25 26 27 28 29 30 31 32 33 34 35 36 37 38 39 40 41 42 43 44 45 46 47 48 49 50
777
ASUS43 KLOT 240208
RWRIL

ILLINOIS REGIONAL WEATHER ROUNDUP
NATIONAL WEATHER SERVICE CHICAGO/ROMEOVILLE IL
900 PM CDT SUN APR 23 2017

NOTE: "FAIR" INDICATES FEW OR NO CLOUDS BELOW 12,000 FEET WITH NO
SIGNIFICANT WEATHER AND/OR OBSTRUCTIONS TO VISIBILITY.

* THESE STATIONS ARE NOT UNDER NWS QUALITY CONTROL. THEY ALSO MAY NOT
  REPORT WEATHER SUCH AS PRECIPITATION OR FOG.

ILZ001-002-007-009-015-016-024-240300-
NORTHWEST ILLINOIS

CITY           SKY/WX    TMP DP  RH WIND       PRES   REMARKS
MOLINE         CLEAR     55  38  52 SE7       30.01S
STERLING*      PTCLDY    56  40  55 CALM      30.02F
SAVANNA*       CLEAR     57  39  52 CALM      30.01S
$$

ILZ003-004-008-010-011-017-018-240300-
NORTH CENTRAL ILLINOIS

CITY           SKY/WX    TMP DP  RH WIND       PRES   REMARKS
ROCKFORD       CLOUDY    59  37  44 SE5       30.03S
FREEPORT*      CLEAR     55  35  47 SW5       30.03S
ROCHELLE*      CLOUDY    60  34  37 CALM      30.03F
DE KALB*       CLEAR     58  35  41 SE9       30.05R
PERU*          CLOUDY    62  28  27 SE3       30.03S
$$

ILZ005-006-012>014-019>023-240300-
NORTHEAST ILLINOIS

CITY           SKY/WX    TMP DP  RH WIND       PRES   REMARKS
CHICAGO-OHARE  MOCLDY    52  38  58 NE10      30.05R
CHICAGO-MIDWAY MOCLDY    60  26  27 E5        30.06R
AURORA         CLEAR     58  34  40 SE8       30.05R
LANSING*       CLEAR     54  33  44 CALM      30.06R
JOLIET*        CLEAR     56  34  43 E3        30.06R
WAUKEGAN       PTCLDY    41  32  70 NE5       30.07S
DUPAGE AIRPORT CLEAR     58  33  39 SE6       30.05R
KANKAKEE*      CLEAR     55  27  34 NE6       30.04S
WHEELING       CLEAR     44  40  85 N5        30.09R
MORRIS*        CLEAR     59  31  33 CALM      30.04R
ROMEOVILLE*    CLEAR     56  36  46 E5        30.06R
NORTHERLY ISL    N/A     52  39  61 N9          N/A
$$

LMZ740>746-240300-
SOUTHERN LAKE MICHIGAN

STATION/POSITION SKY/WX   TEMP    WIND        PRES    VSBY  WAVE
                          AIR SEA DIR/SP/G                  HT/PER
                          (F)     (DEG/KT/KT) (MB)    (MI)  (FT/S)
SOUTHERN BUOY              40 41   20/  6/  8 1019.1R         1/ 4
HARRISON CRIB              50     360/ 13/ 14   N/A
BURNHAM HARBOR             48      10/  9/ 10   N/A
CALUMET HARBOR             56      70/  1/  2 1017.2R
BURNS HARBOR               54      80/  7/  8 1017.9S
MICHIGAN CITY              52      50/  4/  5   N/A
ST. JOSEPH                 52 54   40/  4/  6 1018.5          0
$$

ILZ025>027-034>036-040-047-049-050-058-095>099-240300-
WEST-CENTRAL ILLINOIS

CITY           SKY/WX    TMP DP  RH WIND       PRES   REMARKS
QUINCY         CLEAR     58  31  35 SE5       30.02S
GALESBURG*     CLOUDY    55  35  46 SE5       30.01S
MACOMB*        CLEAR     57  29  34 SE7       30.04S
JACKSONVILLE*  CLEAR     53  36  53 N6        30.02R
PITTSFIELD*    CLEAR     60  31  33 NW3       30.03S
$$

ILZ028>032-037-038-041>044-048-051>054-059>061-240300-
CENTRAL ILLINOIS

CITY           SKY/WX    TMP DP  RH WIND       PRES   REMARKS
PONTIAC        CLEAR     56  30  35 NE7       30.04R
BLOOMINGTON    CLEAR     59  25  27 N8        30.03S
DECATUR        CLEAR     54  31  41 NE8       30.01R
PEORIA         CLEAR     58  30  34 CALM      30.03R
LACON*         CLEAR     52  35  52 CALM      30.02S
LINCOLN*       CLEAR     61  30  31 N5        30.01S
SPRINGFIELD    CLEAR     56  33  42 N6        30.00F
TAYLORVILLE    CLEAR     61  28  28 NE5       30.01R
$$

ILZ033-039-045-046-055>057-062-063-240300-
EAST-CENTRAL ILLINOIS

CITY           SKY/WX    TMP DP  RH WIND       PRES   REMARKS
CHAMPAIGN      CLEAR     59  28  30 NE6       30.02R
RANTOUL*       CLEAR     60  31  34 NE9       30.02R
MATTOON        CLEAR     56  29  35 NE6       29.99S
PARIS*         CLEAR     59  32  35 NE6       30.02R
$$

ILZ079-100>102-240300-
SOUTHWEST ILLINOIS

CITY           SKY/WX    TMP DP  RH WIND       PRES   REMARKS
ALTON          CLEAR     52  34  50 N7        30.00R
BELLEVILLE     CLEAR     59  33  36 CALM      29.98R
CAHOKIA*       CLEAR     57  32  38 CALM      29.99S
SPARTA*        CLEAR     60  34  37 N3        29.99S
$$

ILZ064>066-069>071-074>076-080>082-084>086-088>090-092>094-240300-
SOUTH-CENTRAL ILLINOIS

CITY           SKY/WX    TMP DP  RH WIND       PRES   REMARKS
CARBONDALE     CLEAR     59  39  47 N5        29.96R
CAIRO*         CLEAR     57  43  58 NW5       29.94R
EFFINGHAM*     CLEAR     63  32  32 N5        30.01R
MARION         CLEAR     54  41  62 CALM      29.97R
MT. VERNON     CLEAR     49  38  65 CALM      29.98R
CENTRALIA*     CLEAR     60  34  38 CALM      29.98R
SALEM*         CLEAR     57  33  39 NE5       29.99R
METROPOLIS*    CLEAR     59  40  49 E6        29.94R
$$

ILZ067-068-072-073-078-083-087-091-240300-
SOUTHEAST ILLINOIS

CITY           SKY/WX    TMP DP  RH WIND       PRES   REMARKS
LAWRENCEVILLE  CLEAR     59  36  42 N9        29.97R
FLORA*         CLEAR     61  31  32 N6        29.98R
FAIRFIELD*     CLEAR     60  33  36 CALM      29.96R
HARRISBURG*    CLEAR     59  39  48 N3        29.95R
ROBINSON*      CLEAR     59  30  32 N9        29.99R
CARMI*         CLEAR     56  39  53 N8        29.95R
$$

ABBREVIATIONS USED IN REMARKS
   TC - TEMPERATURE IN CELSIUS
  WCI - WIND CHILL INDEX
   HX - HEAT INDEX
  VSB - VISIBILITY
$$





USA.gov is the U.S. government's official web portal to all federal, state and local government web resources and services.